SWR3SA LSZH-EKCH

Flight info

Callsign SWR3SA
Flight time N/A
Altitude 34000
Route DEGES Z1 ETAGO DCT HAREM/N0454F350 DCT LOHRE DCT BERXO DCT MAKEL MONAK
Aircraft A321/M-SDE3FGHIRWY/LB1

Departure

Time N/A
Airport Zürich Airport (LSZH)

Arrival

Time 2026-04-23 19:33
Airport Copenhagen Kastrup Airport (EKCH)
Time Latitude Longitude Altitude Speed Heading
2026-04-23 19:12 54.04771 11.54402 35195 ft 431 kts 18°
2026-04-23 19:12 54.07583 11.56180 35193 ft 431 kts 18°
2026-04-23 19:13 54.13206 11.59749 35184 ft 431 kts 18°
2026-04-23 19:13 54.15973 11.61502 34834 ft 429 kts 18°
2026-04-23 19:13 54.18777 11.63276 34175 ft 430 kts 18°
2026-04-23 19:13 54.21583 11.65052 33451 ft 430 kts 18°
2026-04-23 19:14 54.24391 11.66838 32724 ft 431 kts 18°
2026-04-23 19:14 54.27202 11.68635 31979 ft 432 kts 18°
2026-04-23 19:14 54.30027 11.70444 31227 ft 433 kts 18°
2026-04-23 19:14 54.32855 11.72256 30483 ft 435 kts 18°
2026-04-23 19:15 54.35699 11.74075 29641 ft 436 kts 18°
2026-04-23 19:15 54.38555 11.75902 28733 ft 438 kts 18°
2026-04-23 19:15 54.41421 11.77740 27822 ft 440 kts 18°
2026-04-23 19:15 54.44250 11.79603 26955 ft 443 kts 21°
2026-04-23 19:16 54.46938 11.82089 26755 ft 432 kts 28°
2026-04-23 19:16 54.49465 11.84701 26611 ft 417 kts 27°
2026-04-23 19:16 54.51926 11.87217 26260 ft 408 kts 27°
2026-04-23 19:17 54.56748 11.92138 25293 ft 398 kts 27°
2026-04-23 19:17 54.59147 11.94591 24523 ft 402 kts 27°
2026-04-23 19:17 54.61554 11.97060 23915 ft 401 kts 27°
2026-04-23 19:17 54.63947 11.99518 23284 ft 399 kts 27°
2026-04-23 19:18 54.66324 12.01960 22677 ft 396 kts 27°
2026-04-23 19:18 54.68682 12.04392 22078 ft 392 kts 27°
2026-04-23 19:18 54.71011 12.06799 21504 ft 388 kts 27°
2026-04-23 19:18 54.73320 12.09188 20933 ft 385 kts 27°
2026-04-23 19:19 54.77850 12.13889 19815 ft 379 kts 27°
2026-04-23 19:19 54.80102 12.16236 19272 ft 376 kts 28°
2026-04-23 19:20 54.84558 12.20887 18198 ft 371 kts 28°
2026-04-23 19:20 54.86761 12.23192 17622 ft 368 kts 28°
2026-04-23 19:20 54.88946 12.25480 17087 ft 365 kts 28°
2026-04-23 19:20 54.91130 12.27672 16569 ft 359 kts 21°
2026-04-23 19:21 54.93486 12.28880 16091 ft 350 kts
2026-04-23 19:21 54.98296 12.29639 15070 ft 343 kts
2026-04-23 19:21 55.00635 12.29983 14560 ft 332 kts
2026-04-23 19:22 55.02913 12.30312 13945 ft 325 kts
2026-04-23 19:22 55.05119 12.30630 13490 ft 313 kts
2026-04-23 19:22 55.09176 12.31221 13002 ft 277 kts
2026-04-23 19:23 55.11080 12.31493 12504 ft 272 kts
2026-04-23 19:23 55.12962 12.31763 11954 ft 270 kts
2026-04-23 19:23 55.14827 12.32031 11400 ft 268 kts
2026-04-23 19:24 55.18488 12.32565 10346 ft 263 kts
2026-04-23 19:24 55.20302 12.32829 9801 ft 260 kts
2026-04-23 19:24 55.23891 12.33354 8635 ft 257 kts
2026-04-23 19:25 55.26830 12.33787 7702 ft 253 kts
2026-04-23 19:25 55.30325 12.34304 6608 ft 250 kts
2026-04-23 19:26 55.33562 12.34787 6283 ft 215 kts
2026-04-23 19:26 55.34985 12.34997 6158 ft 195 kts
2026-04-23 19:27 55.37458 12.35363 5563 ft 174 kts
2026-04-23 19:27 55.41087 12.35887 4287 ft 175 kts
2026-04-23 19:28 55.43480 12.36644 3580 ft 179 kts 23°
2026-04-23 19:28 55.45497 12.39309 3313 ft 185 kts 35°
2026-04-23 19:29 55.46478 12.40775 3199 ft 185 kts 36°
2026-04-23 19:29 55.48423 12.43754 2838 ft 185 kts 36°
2026-04-23 19:30 55.50368 12.46725 2356 ft 184 kts 37°
2026-04-23 19:30 55.51333 12.48212 2087 ft 184 kts 37°
2026-04-23 19:30 55.53177 12.51058 1626 ft 162 kts 37°
2026-04-23 19:31 55.54020 12.52347 1363 ft 157 kts 37°
2026-04-23 19:31 55.54819 12.53567 1122 ft 152 kts 37°
2026-04-23 19:31 55.55608 12.54782 936 ft 150 kts 38°
2026-04-23 19:31 55.56403 12.56006 781 ft 152 kts 39°
2026-04-23 19:32 55.57198 12.57235 585 ft 152 kts 39°
2026-04-23 19:32 55.57996 12.58461 368 ft 151 kts 40°
2026-04-23 19:32 55.58775 12.59665 149 ft 146 kts 41°
2026-04-23 19:32 55.59532 12.60837 26 ft 140 kts 40°
2026-04-23 19:33 55.60200 12.61868 19 ft 107 kts 41°
2026-04-23 19:33 55.60625 12.62528 20 ft 57 kts 41°
2026-04-23 19:33 55.60939 12.62855 18 ft 14 kts 14°
2026-04-23 19:34 55.61032 12.62892 17 ft 13 kts
2026-04-23 19:34 55.61118 12.62929 17 ft 12 kts 22°
2026-04-23 19:34 55.61255 12.63124 19 ft 12 kts 41°
2026-04-23 19:35 55.61317 12.63219 17 ft 11 kts 41°
2026-04-23 19:35 55.61375 12.63310 17 ft 11 kts 41°
2026-04-23 19:35 55.61432 12.63397 17 ft 11 kts 40°
2026-04-23 19:35 55.61525 12.63541 19 ft 23 kts 41°
2026-04-23 19:36 55.61646 12.63727 17 ft 23 kts 41°
2026-04-23 19:36 55.61763 12.63907 17 ft 22 kts 41°
2026-04-23 19:36 55.61882 12.64080 17 ft 22 kts 29°
2026-04-23 19:36 55.62004 12.64183 17 ft 17 kts 25°
2026-04-23 19:37 55.62076 12.64243 19 ft 9 kts 25°
2026-04-23 19:37 55.62127 12.64286 18 ft 5 kts 25°
2026-04-23 19:37 55.62146 12.64302 17 ft 2 kts 25°
2026-04-23 19:37 55.62148 12.64304 17 ft 0 kts 25°
2026-04-23 19:38 55.62155 12.64309 16 ft 5 kts 25°
2026-04-23 19:39 55.62229 12.64357 15 ft 15 kts 355°
2026-04-23 19:39 55.62299 12.64224 15 ft 16 kts 303°
2026-04-23 19:39 55.62369 12.64035 16 ft 19 kts 303°
2026-04-23 19:39 55.62447 12.63839 16 ft 20 kts 317°
2026-04-23 19:40 55.62572 12.63770 17 ft 19 kts
2026-04-23 19:40 55.62685 12.63858 18 ft 16 kts 32°
2026-04-23 19:40 55.62746 12.63928 17 ft 10 kts 32°
2026-04-23 19:40 55.62808 12.63975 17 ft 9 kts 12°
2026-04-23 19:41 55.62859 12.63994 17 ft 3 kts 12°
2026-04-23 19:41 55.62874 12.64000 17 ft 0 kts 12°
2026-04-23 19:41 55.62875 12.64000 17 ft 0 kts 12°